Time,TemperatureF,DewpointF,PressureIn,WindDirection,WindDirectionDegrees,WindSpeedMPH,WindSpeedGustMPH,Humidity,HourlyPrecipIn,Conditions,Clouds,dailyrainin,SoftwareType,DateUTC
2013-02-02 00:00:00,26.1,6.1,30.04,North,-999,-999.0,-999.0,42,-99.99,,,-99.99,meteohub,2013-02-02 05:00:00,
2013-02-02 00:01:00,26.1,6.1,30.04,North,-999,-999.0,-999.0,42,-99.99,,,-99.99,meteohub,2013-02-02 05:01:00,
2013-02-02 00:02:00,26.1,6.1,30.04,North,-999,-999.0,-999.0,42,-99.99,,,-99.99,meteohub,2013-02-02 05:02:00,
2013-02-02 00:07:00,26.1,6.1,30.01,North,-999,-999.0,-999.0,42,-99.99,,,-99.99,meteohub,2013-02-02 05:07:00,
2013-02-02 00:12:00,25.9,5.9,30.01,North,-999,-999.0,-999.0,42,-99.99,,,-99.99,meteohub,2013-02-02 05:12:00,
2013-02-02 00:17:00,25.9,5.9,30.01,North,-999,-999.0,-999.0,42,-99.99,,,-99.99,meteohub,2013-02-02 05:17:00,
2013-02-02 00:22:00,25.7,5.9,30.01,North,-999,-999.0,-999.0,42,-99.99,,,-99.99,meteohub,2013-02-02 05:22:00,
2013-02-02 00:27:00,25.7,5.9,30.01,North,-999,-999.0,-999.0,42,-99.99,,,-99.99,meteohub,2013-02-02 05:27:00,
2013-02-02 00:32:00,25.5,5.7,30.01,North,-999,-999.0,-999.0,42,-99.99,,,-99.99,meteohub,2013-02-02 05:32:00,
2013-02-02 00:37:00,25.5,5.7,30.01,North,-999,-999.0,-999.0,42,-99.99,,,-99.99,meteohub,2013-02-02 05:37:00,
2013-02-02 00:42:00,25.5,6.1,30.01,North,-999,-999.0,-999.0,43,-99.99,,,-99.99,meteohub,2013-02-02 05:42:00,
2013-02-02 00:47:00,25.7,5.9,30.01,North,-999,-999.0,-999.0,42,-99.99,,,-99.99,meteohub,2013-02-02 05:47:00,
2013-02-02 00:52:00,25.7,5.9,30.01,North,-999,-999.0,-999.0,42,-99.99,,,-99.99,meteohub,2013-02-02 05:52:00,
2013-02-02 00:57:00,25.7,6.3,30.01,North,-999,-999.0,-999.0,43,-99.99,,,-99.99,meteohub,2013-02-02 05:57:00,
2013-02-02 01:02:00,25.7,6.3,30.01,North,-999,-999.0,-999.0,43,-99.99,,,-99.99,meteohub,2013-02-02 06:02:00,
2013-02-02 01:07:00,25.9,5.9,30.01,North,-999,-999.0,-999.0,42,-99.99,,,-99.99,meteohub,2013-02-02 06:07:00,
2013-02-02 01:12:00,25.9,5.9,30.01,North,-999,-999.0,-999.0,42,-99.99,,,-99.99,meteohub,2013-02-02 06:12:00,
2013-02-02 01:17:00,25.9,5.9,30.01,North,-999,-999.0,-999.0,42,-99.99,,,-99.99,meteohub,2013-02-02 06:17:00,
2013-02-02 01:22:00,25.9,5.9,30.01,North,-999,-999.0,-999.0,42,-99.99,,,-99.99,meteohub,2013-02-02 06:22:00,
2013-02-02 01:27:00,25.9,5.9,30.01,North,-999,-999.0,-999.0,42,-99.99,,,-99.99,meteohub,2013-02-02 06:27:00,
2013-02-02 01:32:00,25.9,5.9,30.01,North,-999,-999.0,-999.0,42,-99.99,,,-99.99,meteohub,2013-02-02 06:32:00,
2013-02-02 01:37:00,25.9,5.9,30.01,North,-999,-999.0,-999.0,42,-99.99,,,-99.99,meteohub,2013-02-02 06:37:00,
2013-02-02 01:42:00,25.7,5.9,30.01,North,-999,-999.0,-999.0,42,-99.99,,,-99.99,meteohub,2013-02-02 06:42:00,
2013-02-02 01:47:00,25.7,5.9,30.01,North,-999,-999.0,-999.0,42,-99.99,,,-99.99,meteohub,2013-02-02 06:47:00,
2013-02-02 01:52:00,25.7,5.9,29.99,North,-999,-999.0,-999.0,42,-99.99,,,-99.99,meteohub,2013-02-02 06:52:00,
2013-02-02 01:57:00,25.7,5.9,29.99,North,-999,-999.0,-999.0,42,-99.99,,,-99.99,meteohub,2013-02-02 06:57:00,
2013-02-02 02:02:00,25.7,5.9,29.99,North,-999,-999.0,-999.0,42,-99.99,,,-99.99,meteohub,2013-02-02 07:02:00,
2013-02-02 02:07:00,25.7,5.9,29.99,North,-999,-999.0,-999.0,42,-99.99,,,-99.99,meteohub,2013-02-02 07:07:00,
2013-02-02 02:12:00,25.7,5.9,29.99,North,-999,-999.0,-999.0,42,-99.99,,,-99.99,meteohub,2013-02-02 07:12:00,
2013-02-02 02:17:00,25.7,5.9,29.99,North,-999,-999.0,-999.0,42,-99.99,,,-99.99,meteohub,2013-02-02 07:17:00,
2013-02-02 02:22:00,25.7,5.9,30.01,North,-999,-999.0,-999.0,42,-99.99,,,-99.99,meteohub,2013-02-02 07:22:00,
2013-02-02 02:27:00,25.5,5.7,30.01,North,-999,-999.0,-999.0,42,-99.99,,,-99.99,meteohub,2013-02-02 07:27:00,
2013-02-02 02:32:00,25.5,5.7,30.01,North,-999,-999.0,-999.0,42,-99.99,,,-99.99,meteohub,2013-02-02 07:32:00,
2013-02-02 02:37:00,25.3,5.5,29.99,North,-999,-999.0,-999.0,42,-99.99,,,-99.99,meteohub,2013-02-02 07:37:00,
2013-02-02 02:42:00,25.3,5.5,29.99,North,-999,-999.0,-999.0,42,-99.99,,,-99.99,meteohub,2013-02-02 07:42:00,
2013-02-02 02:47:00,25.3,5.5,29.99,North,-999,-999.0,-999.0,42,-99.99,,,-99.99,meteohub,2013-02-02 07:47:00,
2013-02-02 02:52:00,25.3,5.5,30.01,North,-999,-999.0,-999.0,42,-99.99,,,-99.99,meteohub,2013-02-02 07:52:00,
2013-02-02 02:57:00,25.3,5.5,30.01,North,-999,-999.0,-999.0,42,-99.99,,,-99.99,meteohub,2013-02-02 07:57:00,
2013-02-02 03:02:00,25.3,5.5,30.01,North,-999,-999.0,-999.0,42,-99.99,,,-99.99,meteohub,2013-02-02 08:02:00,
2013-02-02 03:07:00,25.3,5.5,30.01,North,-999,-999.0,-999.0,42,-99.99,,,-99.99,meteohub,2013-02-02 08:07:00,
2013-02-02 03:12:00,25.2,5.4,30.01,North,-999,-999.0,-999.0,42,-99.99,,,-99.99,meteohub,2013-02-02 08:12:00,
2013-02-02 03:17:00,25.2,5.4,30.01,North,-999,-999.0,-999.0,42,-99.99,,,-99.99,meteohub,2013-02-02 08:17:00,
2013-02-02 03:22:00,24.8,5.5,30.01,North,-999,-999.0,-999.0,43,-99.99,,,-99.99,meteohub,2013-02-02 08:22:00,
2013-02-02 03:27:00,24.8,5.5,30.01,North,-999,-999.0,-999.0,43,-99.99,,,-99.99,meteohub,2013-02-02 08:27:00,
2013-02-02 03:32:00,24.6,5.4,30.01,North,-999,-999.0,-999.0,43,-99.99,,,-99.99,meteohub,2013-02-02 08:32:00,
2013-02-02 03:37:00,24.6,5.4,30.01,North,-999,-999.0,-999.0,43,-99.99,,,-99.99,meteohub,2013-02-02 08:37:00,
2013-02-02 03:43:00,24.4,5.2,30.01,North,-999,-999.0,-999.0,43,-99.99,,,-99.99,meteohub,2013-02-02 08:43:00,
2013-02-02 03:48:00,24.3,5.0,30.01,North,-999,-999.0,-999.0,43,-99.99,,,-99.99,meteohub,2013-02-02 08:48:00,
2013-02-02 03:53:00,24.3,5.0,30.01,North,-999,-999.0,-999.0,43,-99.99,,,-99.99,meteohub,2013-02-02 08:53:00,
2013-02-02 03:58:00,24.1,4.8,30.01,North,-999,-999.0,-999.0,43,-99.99,,,-99.99,meteohub,2013-02-02 08:58:00,
2013-02-02 04:03:00,24.1,4.8,30.01,North,-999,-999.0,-999.0,43,-99.99,,,-99.99,meteohub,2013-02-02 09:03:00,
2013-02-02 04:09:00,24.1,4.8,30.01,North,-999,-999.0,-999.0,43,-99.99,,,-99.99,meteohub,2013-02-02 09:09:00,
2013-02-02 04:14:00,23.9,5.2,30.01,North,-999,-999.0,-999.0,44,-99.99,,,-99.99,meteohub,2013-02-02 09:14:00,
2013-02-02 04:19:00,23.9,5.2,30.01,North,-999,-999.0,-999.0,44,-99.99,,,-99.99,meteohub,2013-02-02 09:19:00,
2013-02-02 04:24:00,23.7,5.0,30.01,North,-999,-999.0,-999.0,44,-99.99,,,-99.99,meteohub,2013-02-02 09:24:00,
2013-02-02 04:29:00,23.5,4.8,30.01,North,-999,-999.0,-999.0,44,-99.99,,,-99.99,meteohub,2013-02-02 09:29:00,
2013-02-02 04:34:00,23.5,4.8,30.01,North,-999,-999.0,-999.0,44,-99.99,,,-99.99,meteohub,2013-02-02 09:34:00,
2013-02-02 04:39:00,23.4,4.6,30.01,North,-999,-999.0,-999.0,44,-99.99,,,-99.99,meteohub,2013-02-02 09:39:00,
2013-02-02 04:44:00,23.4,4.6,30.01,North,-999,-999.0,-999.0,44,-99.99,,,-99.99,meteohub,2013-02-02 09:44:00,
2013-02-02 04:49:00,23.0,4.8,30.01,North,-999,-999.0,-999.0,45,-99.99,,,-99.99,meteohub,2013-02-02 09:49:00,
2013-02-02 04:55:00,23.0,4.8,30.01,North,-999,-999.0,-999.0,45,-99.99,,,-99.99,meteohub,2013-02-02 09:55:00,
2013-02-02 05:00:00,22.8,4.6,30.01,North,-999,-999.0,-999.0,45,-99.99,,,-99.99,meteohub,2013-02-02 10:00:00,
2013-02-02 05:05:00,22.8,5.2,30.01,North,-999,-999.0,-999.0,46,-99.99,,,-99.99,meteohub,2013-02-02 10:05:00,
2013-02-02 05:10:00,22.6,5.0,30.01,North,-999,-999.0,-999.0,46,-99.99,,,-99.99,meteohub,2013-02-02 10:10:00,
2013-02-02 05:15:00,22.6,5.5,30.01,North,-999,-999.0,-999.0,47,-99.99,,,-99.99,meteohub,2013-02-02 10:15:00,
2013-02-02 05:20:00,22.5,5.4,30.01,North,-999,-999.0,-999.0,47,-99.99,,,-99.99,meteohub,2013-02-02 10:20:00,
2013-02-02 05:25:00,22.1,5.0,30.01,North,-999,-999.0,-999.0,47,-99.99,,,-99.99,meteohub,2013-02-02 10:25:00,
2013-02-02 05:30:00,22.1,5.0,30.01,North,-999,-999.0,-999.0,47,-99.99,,,-99.99,meteohub,2013-02-02 10:30:00,
2013-02-02 05:35:00,21.9,4.8,30.01,North,-999,-999.0,-999.0,47,-99.99,,,-99.99,meteohub,2013-02-02 10:35:00,
2013-02-02 05:41:00,21.9,5.2,30.01,North,-999,-999.0,-999.0,48,-99.99,,,-99.99,meteohub,2013-02-02 10:41:00,
2013-02-02 05:46:00,21.9,5.2,30.01,North,-999,-999.0,-999.0,48,-99.99,,,-99.99,meteohub,2013-02-02 10:46:00,
2013-02-02 05:51:00,21.9,5.2,30.01,North,-999,-999.0,-999.0,48,-99.99,,,-99.99,meteohub,2013-02-02 10:51:00,
2013-02-02 05:56:00,21.9,5.2,30.01,North,-999,-999.0,-999.0,48,-99.99,,,-99.99,meteohub,2013-02-02 10:56:00,
2013-02-02 06:01:00,21.7,5.2,30.01,North,-999,-999.0,-999.0,48,-99.99,,,-99.99,meteohub,2013-02-02 11:01:00,
2013-02-02 06:06:00,21.7,5.2,30.01,North,-999,-999.0,-999.0,48,-99.99,,,-99.99,meteohub,2013-02-02 11:06:00,
2013-02-02 06:11:00,21.7,5.2,30.01,North,-999,-999.0,-999.0,48,-99.99,,,-99.99,meteohub,2013-02-02 11:11:00,
2013-02-02 06:16:00,21.4,5.2,30.01,North,-999,-999.0,-999.0,49,-99.99,,,-99.99,meteohub,2013-02-02 11:16:00,
2013-02-02 06:21:00,21.6,5.9,30.01,North,-999,-999.0,-999.0,50,-99.99,,,-99.99,meteohub,2013-02-02 11:21:00,
2013-02-02 06:26:00,21.2,5.5,30.01,North,-999,-999.0,-999.0,50,-99.99,,,-99.99,meteohub,2013-02-02 11:26:00,
2013-02-02 06:32:00,21.2,5.5,30.01,North,-999,-999.0,-999.0,50,-99.99,,,-99.99,meteohub,2013-02-02 11:32:00,
2013-02-02 06:37:00,21.2,5.5,30.01,North,-999,-999.0,-999.0,50,-99.99,,,-99.99,meteohub,2013-02-02 11:37:00,
2013-02-02 06:42:00,21.0,5.4,30.01,North,-999,-999.0,-999.0,50,-99.99,,,-99.99,meteohub,2013-02-02 11:42:00,
2013-02-02 06:47:00,21.0,5.7,30.01,North,-999,-999.0,-999.0,51,-99.99,,,-99.99,meteohub,2013-02-02 11:47:00,
2013-02-02 06:52:00,21.0,5.7,30.01,North,-999,-999.0,-999.0,51,-99.99,,,-99.99,meteohub,2013-02-02 11:52:00,
2013-02-02 06:57:00,20.8,5.5,30.01,North,-999,-999.0,-999.0,51,-99.99,,,-99.99,meteohub,2013-02-02 11:57:00,
2013-02-02 07:02:00,20.7,5.9,30.01,North,-999,-999.0,-999.0,52,-99.99,,,-99.99,meteohub,2013-02-02 12:02:00,
2013-02-02 07:07:00,20.7,5.9,30.01,North,-999,-999.0,-999.0,52,-99.99,,,-99.99,meteohub,2013-02-02 12:07:00,
2013-02-02 07:12:00,20.7,6.3,30.01,North,-999,-999.0,-999.0,53,-99.99,,,-99.99,meteohub,2013-02-02 12:12:00,
2013-02-02 07:17:00,20.7,6.3,30.01,North,-999,-999.0,-999.0,53,-99.99,,,-99.99,meteohub,2013-02-02 12:17:00,
2013-02-02 07:22:00,20.5,6.1,30.04,North,-999,-999.0,-999.0,53,-99.99,,,-99.99,meteohub,2013-02-02 12:22:00,
2013-02-02 07:27:00,20.5,6.1,30.04,North,-999,-999.0,-999.0,53,-99.99,,,-99.99,meteohub,2013-02-02 12:27:00,
2013-02-02 07:32:00,20.7,6.3,30.04,North,-999,-999.0,-999.0,53,-99.99,,,-99.99,meteohub,2013-02-02 12:32:00,
2013-02-02 07:37:00,20.7,6.3,30.04,North,-999,-999.0,-999.0,53,-99.99,,,-99.99,meteohub,2013-02-02 12:37:00,
2013-02-02 07:42:00,20.7,6.6,30.04,North,-999,-999.0,-999.0,54,-99.99,,,-99.99,meteohub,2013-02-02 12:42:00,
2013-02-02 07:47:00,20.8,6.4,30.04,North,-999,-999.0,-999.0,53,-99.99,,,-99.99,meteohub,2013-02-02 12:47:00,
2013-02-02 07:52:00,21.0,6.6,30.07,North,-999,-999.0,-999.0,53,-99.99,,,-99.99,meteohub,2013-02-02 12:52:00,
2013-02-02 07:57:00,21.2,7.2,30.07,North,-999,-999.0,-999.0,54,-99.99,,,-99.99,meteohub,2013-02-02 12:57:00,
2013-02-02 08:02:00,21.2,7.2,30.07,North,-999,-999.0,-999.0,54,-99.99,,,-99.99,meteohub,2013-02-02 13:02:00,
2013-02-02 08:07:00,21.4,7.3,30.07,North,-999,-999.0,-999.0,54,-99.99,,,-99.99,meteohub,2013-02-02 13:07:00,
2013-02-02 08:12:00,21.7,7.7,30.07,North,-999,-999.0,-999.0,54,-99.99,,,-99.99,meteohub,2013-02-02 13:12:00,
2013-02-02 08:17:00,21.9,7.9,30.07,North,-999,-999.0,-999.0,54,-99.99,,,-99.99,meteohub,2013-02-02 13:17:00,
2013-02-02 08:22:00,22.6,8.6,30.07,North,-999,-999.0,-999.0,54,-99.99,,,-99.99,meteohub,2013-02-02 13:22:00,
2013-02-02 08:27:00,23.2,8.6,30.07,North,-999,-999.0,-999.0,53,-99.99,,,-99.99,meteohub,2013-02-02 13:27:00,
2013-02-02 08:32:00,23.7,8.2,30.07,North,-999,-999.0,-999.0,51,-99.99,,,-99.99,meteohub,2013-02-02 13:32:00,
2013-02-02 08:37:00,24.4,7.5,30.07,North,-999,-999.0,-999.0,48,-99.99,,,-99.99,meteohub,2013-02-02 13:37:00,
2013-02-02 08:42:00,24.8,7.5,30.07,North,-999,-999.0,-999.0,47,-99.99,,,-99.99,meteohub,2013-02-02 13:42:00,
2013-02-02 08:47:00,25.3,7.5,30.07,North,-999,-999.0,-999.0,46,-99.99,,,-99.99,meteohub,2013-02-02 13:47:00,
2013-02-02 08:52:00,25.7,6.8,30.07,North,-999,-999.0,-999.0,44,-99.99,,,-99.99,meteohub,2013-02-02 13:52:00,
2013-02-02 08:57:00,26.1,6.6,30.07,North,-999,-999.0,-999.0,43,-99.99,,,-99.99,meteohub,2013-02-02 13:57:00,
2013-02-02 09:02:00,26.4,7.0,30.07,North,-999,-999.0,-999.0,43,-99.99,,,-99.99,meteohub,2013-02-02 14:02:00,
2013-02-02 09:07:00,27.0,7.5,30.07,North,-999,-999.0,-999.0,43,-99.99,,,-99.99,meteohub,2013-02-02 14:07:00,
2013-02-02 09:12:00,27.0,7.0,30.07,North,-999,-999.0,-999.0,42,-99.99,,,-99.99,meteohub,2013-02-02 14:12:00,
2013-02-02 09:17:00,27.3,6.8,30.07,North,-999,-999.0,-999.0,41,-99.99,,,-99.99,meteohub,2013-02-02 14:17:00,
2013-02-02 09:22:00,27.7,7.7,30.07,North,-999,-999.0,-999.0,42,-99.99,,,-99.99,meteohub,2013-02-02 14:22:00,
2013-02-02 09:27:00,27.9,7.2,30.07,North,-999,-999.0,-999.0,41,-99.99,,,-99.99,meteohub,2013-02-02 14:27:00,
2013-02-02 09:32:00,28.2,7.5,30.07,North,-999,-999.0,-999.0,41,-99.99,,,-99.99,meteohub,2013-02-02 14:32:00,
2013-02-02 09:37:00,28.6,7.9,30.07,North,-999,-999.0,-999.0,41,-99.99,,,-99.99,meteohub,2013-02-02 14:37:00,
2013-02-02 09:42:00,29.1,8.4,30.07,North,-999,-999.0,-999.0,41,-99.99,,,-99.99,meteohub,2013-02-02 14:42:00,
2013-02-02 09:47:00,29.7,8.2,30.07,North,-999,-999.0,-999.0,40,-99.99,,,-99.99,meteohub,2013-02-02 14:47:00,
2013-02-02 09:52:00,29.8,8.4,30.07,North,-999,-999.0,-999.0,40,-99.99,,,-99.99,meteohub,2013-02-02 14:52:00,
2013-02-02 09:57:00,30.0,8.6,30.07,North,-999,-999.0,-999.0,40,-99.99,,,-99.99,meteohub,2013-02-02 14:57:00,
2013-02-02 10:02:00,30.6,9.1,30.07,North,-999,-999.0,-999.0,40,-99.99,,,-99.99,meteohub,2013-02-02 15:02:00,
2013-02-02 10:07:00,30.7,8.2,30.07,North,-999,-999.0,-999.0,38,-99.99,,,-99.99,meteohub,2013-02-02 15:07:00,
2013-02-02 10:12:00,31.1,8.4,30.07,North,-999,-999.0,-999.0,38,-99.99,,,-99.99,meteohub,2013-02-02 15:12:00,
2013-02-02 10:17:00,32.9,11.3,30.07,North,-999,-999.0,-999.0,40,-99.99,,,-99.99,meteohub,2013-02-02 15:17:00,
2013-02-02 10:22:00,33.3,10.4,30.07,North,-999,-999.0,-999.0,38,-99.99,,,-99.99,meteohub,2013-02-02 15:22:00,
2013-02-02 10:27:00,33.8,10.9,30.07,North,-999,-999.0,-999.0,38,-99.99,,,-99.99,meteohub,2013-02-02 15:27:00,
2013-02-02 10:32:00,34.3,11.5,30.07,North,-999,-999.0,-999.0,38,-99.99,,,-99.99,meteohub,2013-02-02 15:32:00,
2013-02-02 10:37:00,34.7,11.1,30.04,North,-999,-999.0,-999.0,37,-99.99,,,-99.99,meteohub,2013-02-02 15:37:00,
2013-02-02 10:42:00,34.7,9.9,30.04,North,-999,-999.0,-999.0,35,-99.99,,,-99.99,meteohub,2013-02-02 15:42:00,
2013-02-02 10:47:00,35.8,11.5,30.04,North,-999,-999.0,-999.0,36,-99.99,,,-99.99,meteohub,2013-02-02 15:47:00,
2013-02-02 10:52:00,36.3,12.0,30.04,North,-999,-999.0,-999.0,36,-99.99,,,-99.99,meteohub,2013-02-02 15:52:00,
2013-02-02 10:57:00,36.9,11.8,30.04,North,-999,-999.0,-999.0,35,-99.99,,,-99.99,meteohub,2013-02-02 15:57:00,
2013-02-02 11:02:00,38.5,13.3,30.04,North,-999,-999.0,-999.0,35,-99.99,,,-99.99,meteohub,2013-02-02 16:02:00,
2013-02-02 11:07:00,37.9,11.5,30.01,North,-999,-999.0,-999.0,33,-99.99,,,-99.99,meteohub,2013-02-02 16:07:00,
2013-02-02 11:13:00,37.4,10.9,30.01,North,-999,-999.0,-999.0,33,-99.99,,,-99.99,meteohub,2013-02-02 16:13:00,
2013-02-02 11:18:00,37.8,11.3,30.01,North,-999,-999.0,-999.0,33,-99.99,,,-99.99,meteohub,2013-02-02 16:18:00,
2013-02-02 11:23:00,37.2,10.2,30.01,North,-999,-999.0,-999.0,32,-99.99,,,-99.99,meteohub,2013-02-02 16:23:00,
2013-02-02 11:28:00,38.5,12.0,30.01,North,-999,-999.0,-999.0,33,-99.99,,,-99.99,meteohub,2013-02-02 16:28:00,
2013-02-02 11:33:00,37.2,10.2,30.01,North,-999,-999.0,-999.0,32,-99.99,,,-99.99,meteohub,2013-02-02 16:33:00,
2013-02-02 11:38:00,36.5,9.5,29.99,North,-999,-999.0,-999.0,32,-99.99,,,-99.99,meteohub,2013-02-02 16:38:00,
2013-02-02 11:43:00,36.7,9.7,29.99,North,-999,-999.0,-999.0,32,-99.99,,,-99.99,meteohub,2013-02-02 16:43:00,
2013-02-02 11:48:00,36.7,9.7,29.99,North,-999,-999.0,-999.0,32,-99.99,,,-99.99,meteohub,2013-02-02 16:48:00,
2013-02-02 11:53:00,37.0,10.8,29.99,North,-999,-999.0,-999.0,33,-99.99,,,-99.99,meteohub,2013-02-02 16:53:00,
2013-02-02 11:59:00,37.2,10.2,29.99,North,-999,-999.0,-999.0,32,-99.99,,,-99.99,meteohub,2013-02-02 16:59:00,
2013-02-02 12:04:00,38.8,11.7,29.96,North,-999,-999.0,-999.0,32,-99.99,,,-99.99,meteohub,2013-02-02 17:04:00,
2013-02-02 12:09:00,39.0,11.7,29.96,North,-999,-999.0,-999.0,32,-99.99,,,-99.99,meteohub,2013-02-02 17:09:00,
2013-02-02 12:14:00,39.4,11.3,29.96,North,-999,-999.0,-999.0,31,-99.99,,,-99.99,meteohub,2013-02-02 17:14:00,
2013-02-02 12:19:00,38.7,10.8,29.96,North,-999,-999.0,-999.0,31,-99.99,,,-99.99,meteohub,2013-02-02 17:19:00,
2013-02-02 12:24:00,38.5,10.6,29.96,North,-999,-999.0,-999.0,31,-99.99,,,-99.99,meteohub,2013-02-02 17:24:00,
2013-02-02 12:29:00,38.5,10.6,29.96,North,-999,-999.0,-999.0,31,-99.99,,,-99.99,meteohub,2013-02-02 17:29:00,
2013-02-02 12:34:00,39.4,11.3,29.93,North,-999,-999.0,-999.0,31,-99.99,,,-99.99,meteohub,2013-02-02 17:34:00,
2013-02-02 12:40:00,38.5,10.6,29.93,North,-999,-999.0,-999.0,31,-99.99,,,-99.99,meteohub,2013-02-02 17:40:00,
2013-02-02 12:45:00,37.8,9.9,29.93,North,-999,-999.0,-999.0,31,-99.99,,,-99.99,meteohub,2013-02-02 17:45:00,
2013-02-02 12:50:00,38.8,10.9,29.93,North,-999,-999.0,-999.0,31,-99.99,,,-99.99,meteohub,2013-02-02 17:50:00,
2013-02-02 12:55:00,39.6,11.5,29.93,North,-999,-999.0,-999.0,31,-99.99,,,-99.99,meteohub,2013-02-02 17:55:00,
2013-02-02 13:00:00,39.7,11.7,29.93,North,-999,-999.0,-999.0,31,-99.99,,,-99.99,meteohub,2013-02-02 18:00:00,
2013-02-02 13:05:00,40.3,12.2,29.90,North,-999,-999.0,-999.0,31,-99.99,,,-99.99,meteohub,2013-02-02 18:05:00,
2013-02-02 13:10:00,40.3,12.2,29.90,North,-999,-999.0,-999.0,31,-99.99,,,-99.99,meteohub,2013-02-02 18:10:00,
2013-02-02 13:15:00,40.8,12.6,29.90,North,-999,-999.0,-999.0,31,-99.99,,,-99.99,meteohub,2013-02-02 18:15:00,
2013-02-02 13:20:00,41.0,12.7,29.90,North,-999,-999.0,-999.0,31,-99.99,,,-99.99,meteohub,2013-02-02 18:20:00,
2013-02-02 13:26:00,41.7,13.5,29.90,North,-999,-999.0,-999.0,31,-99.99,,,-99.99,meteohub,2013-02-02 18:26:00,
2013-02-02 13:31:00,42.4,14.0,29.90,North,-999,-999.0,-999.0,31,-99.99,,,-99.99,meteohub,2013-02-02 18:31:00,
2013-02-02 13:36:00,42.6,13.5,29.87,North,-999,-999.0,-999.0,30,-99.99,,,-99.99,meteohub,2013-02-02 18:36:00,
2013-02-02 13:41:00,42.4,13.3,29.87,North,-999,-999.0,-999.0,30,-99.99,,,-99.99,meteohub,2013-02-02 18:41:00,
2013-02-02 13:46:00,42.4,13.3,29.87,North,-999,-999.0,-999.0,30,-99.99,,,-99.99,meteohub,2013-02-02 18:46:00,
2013-02-02 13:51:00,42.3,13.1,29.87,North,-999,-999.0,-999.0,30,-99.99,,,-99.99,meteohub,2013-02-02 18:51:00,
2013-02-02 13:56:00,42.6,13.5,29.87,North,-999,-999.0,-999.0,30,-99.99,,,-99.99,meteohub,2013-02-02 18:56:00,
2013-02-02 14:01:00,43.0,13.8,29.87,North,-999,-999.0,-999.0,30,-99.99,,,-99.99,meteohub,2013-02-02 19:01:00,
2013-02-02 14:06:00,42.4,13.3,29.84,North,-999,-999.0,-999.0,30,-99.99,,,-99.99,meteohub,2013-02-02 19:06:00,
2013-02-02 14:11:00,43.0,13.8,29.84,North,-999,-999.0,-999.0,30,-99.99,,,-99.99,meteohub,2013-02-02 19:11:00,
2013-02-02 14:17:00,42.8,13.6,29.84,North,-999,-999.0,-999.0,30,-99.99,,,-99.99,meteohub,2013-02-02 19:17:00,
2013-02-02 14:22:00,42.8,13.6,29.84,North,-999,-999.0,-999.0,30,-99.99,,,-99.99,meteohub,2013-02-02 19:22:00,
2013-02-02 14:27:00,42.6,13.5,29.84,North,-999,-999.0,-999.0,30,-99.99,,,-99.99,meteohub,2013-02-02 19:27:00,
2013-02-02 14:32:00,42.8,13.6,29.84,North,-999,-999.0,-999.0,30,-99.99,,,-99.99,meteohub,2013-02-02 19:32:00,
2013-02-02 14:37:00,42.8,12.7,29.84,North,-999,-999.0,-999.0,29,-99.99,,,-99.99,meteohub,2013-02-02 19:37:00,
2013-02-02 14:42:00,42.8,12.7,29.84,North,-999,-999.0,-999.0,29,-99.99,,,-99.99,meteohub,2013-02-02 19:42:00,
2013-02-02 14:47:00,43.0,12.9,29.84,North,-999,-999.0,-999.0,29,-99.99,,,-99.99,meteohub,2013-02-02 19:47:00,
2013-02-02 14:52:00,43.3,14.0,29.84,North,-999,-999.0,-999.0,30,-99.99,,,-99.99,meteohub,2013-02-02 19:52:00,
2013-02-02 14:57:00,43.7,14.4,29.84,North,-999,-999.0,-999.0,30,-99.99,,,-99.99,meteohub,2013-02-02 19:57:00,
2013-02-02 15:02:00,43.5,13.5,29.84,North,-999,-999.0,-999.0,29,-99.99,,,-99.99,meteohub,2013-02-02 20:02:00,
2013-02-02 15:07:00,43.0,12.9,29.81,North,-999,-999.0,-999.0,29,-99.99,,,-99.99,meteohub,2013-02-02 20:07:00,
2013-02-02 15:12:00,43.5,14.2,29.81,North,-999,-999.0,-999.0,30,-99.99,,,-99.99,meteohub,2013-02-02 20:12:00,
2013-02-02 15:17:00,43.7,14.4,29.81,North,-999,-999.0,-999.0,30,-99.99,,,-99.99,meteohub,2013-02-02 20:17:00,
2013-02-02 15:22:00,43.7,13.6,29.81,North,-999,-999.0,-999.0,29,-99.99,,,-99.99,meteohub,2013-02-02 20:22:00,
2013-02-02 15:27:00,43.3,13.3,29.81,North,-999,-999.0,-999.0,29,-99.99,,,-99.99,meteohub,2013-02-02 20:27:00,
2013-02-02 15:32:00,43.0,12.9,29.81,North,-999,-999.0,-999.0,29,-99.99,,,-99.99,meteohub,2013-02-02 20:32:00,
2013-02-02 15:37:00,43.2,13.1,29.81,North,-999,-999.0,-999.0,29,-99.99,,,-99.99,meteohub,2013-02-02 20:37:00,
2013-02-02 15:42:00,43.5,13.5,29.81,North,-999,-999.0,-999.0,29,-99.99,,,-99.99,meteohub,2013-02-02 20:42:00,
2013-02-02 15:47:00,43.7,13.6,29.81,North,-999,-999.0,-999.0,29,-99.99,,,-99.99,meteohub,2013-02-02 20:47:00,
2013-02-02 15:52:00,43.9,13.8,29.81,North,-999,-999.0,-999.0,29,-99.99,,,-99.99,meteohub,2013-02-02 20:52:00,
2013-02-02 15:57:00,43.7,13.6,29.81,North,-999,-999.0,-999.0,29,-99.99,,,-99.99,meteohub,2013-02-02 20:57:00,
2013-02-02 16:02:00,43.7,13.6,29.81,North,-999,-999.0,-999.0,29,-99.99,,,-99.99,meteohub,2013-02-02 21:02:00,
2013-02-02 16:07:00,43.5,13.5,29.81,North,-999,-999.0,-999.0,29,-99.99,,,-99.99,meteohub,2013-02-02 21:07:00,
2013-02-02 16:12:00,43.5,13.5,29.81,North,-999,-999.0,-999.0,29,-99.99,,,-99.99,meteohub,2013-02-02 21:12:00,
2013-02-02 16:17:00,43.7,13.6,29.81,North,-999,-999.0,-999.0,29,-99.99,,,-99.99,meteohub,2013-02-02 21:17:00,
2013-02-02 16:22:00,43.7,13.6,29.81,North,-999,-999.0,-999.0,29,-99.99,,,-99.99,meteohub,2013-02-02 21:22:00,
2013-02-02 16:27:00,43.7,13.6,29.81,North,-999,-999.0,-999.0,29,-99.99,,,-99.99,meteohub,2013-02-02 21:27:00,
2013-02-02 16:32:00,43.7,13.6,29.81,North,-999,-999.0,-999.0,29,-99.99,,,-99.99,meteohub,2013-02-02 21:32:00,
2013-02-02 16:37:00,43.7,14.4,29.81,North,-999,-999.0,-999.0,30,-99.99,,,-99.99,meteohub,2013-02-02 21:37:00,
2013-02-02 16:42:00,43.5,13.5,29.81,North,-999,-999.0,-999.0,29,-99.99,,,-99.99,meteohub,2013-02-02 21:42:00,
2013-02-02 16:47:00,43.7,13.6,29.81,North,-999,-999.0,-999.0,29,-99.99,,,-99.99,meteohub,2013-02-02 21:47:00,
2013-02-02 16:52:00,43.7,13.6,29.78,North,-999,-999.0,-999.0,29,-99.99,,,-99.99,meteohub,2013-02-02 21:52:00,
2013-02-02 16:57:00,43.7,14.4,29.78,North,-999,-999.0,-999.0,30,-99.99,,,-99.99,meteohub,2013-02-02 21:57:00,
2013-02-02 17:02:00,43.7,14.4,29.78,North,-999,-999.0,-999.0,30,-99.99,,,-99.99,meteohub,2013-02-02 22:02:00,
2013-02-02 17:07:00,43.7,14.4,29.78,North,-999,-999.0,-999.0,30,-99.99,,,-99.99,meteohub,2013-02-02 22:07:00,
2013-02-02 17:12:00,43.5,14.2,29.78,North,-999,-999.0,-999.0,30,-99.99,,,-99.99,meteohub,2013-02-02 22:12:00,
2013-02-02 17:17:00,43.5,13.5,29.78,North,-999,-999.0,-999.0,29,-99.99,,,-99.99,meteohub,2013-02-02 22:17:00,
2013-02-02 17:22:00,43.3,14.0,29.78,North,-999,-999.0,-999.0,30,-99.99,,,-99.99,meteohub,2013-02-02 22:22:00,
2013-02-02 17:27:00,43.3,13.3,29.78,North,-999,-999.0,-999.0,29,-99.99,,,-99.99,meteohub,2013-02-02 22:27:00,
2013-02-02 17:32:00,43.2,13.8,29.78,North,-999,-999.0,-999.0,30,-99.99,,,-99.99,meteohub,2013-02-02 22:32:00,
2013-02-02 17:37:00,43.0,13.8,29.78,North,-999,-999.0,-999.0,30,-99.99,,,-99.99,meteohub,2013-02-02 22:37:00,
2013-02-02 17:42:00,43.0,13.8,29.78,North,-999,-999.0,-999.0,30,-99.99,,,-99.99,meteohub,2013-02-02 22:42:00,
2013-02-02 17:47:00,43.0,13.8,29.78,North,-999,-999.0,-999.0,30,-99.99,,,-99.99,meteohub,2013-02-02 22:47:00,
2013-02-02 17:52:00,43.0,13.8,29.78,North,-999,-999.0,-999.0,30,-99.99,,,-99.99,meteohub,2013-02-02 22:52:00,
2013-02-02 17:57:00,43.0,13.8,29.78,North,-999,-999.0,-999.0,30,-99.99,,,-99.99,meteohub,2013-02-02 22:57:00,
2013-02-02 18:02:00,43.0,13.8,29.78,North,-999,-999.0,-999.0,30,-99.99,,,-99.99,meteohub,2013-02-02 23:02:00,
2013-02-02 18:07:00,42.8,13.6,29.78,North,-999,-999.0,-999.0,30,-99.99,,,-99.99,meteohub,2013-02-02 23:07:00,
2013-02-02 18:12:00,42.8,13.6,29.78,North,-999,-999.0,-999.0,30,-99.99,,,-99.99,meteohub,2013-02-02 23:12:00,
2013-02-02 18:17:00,42.8,13.6,29.78,North,-999,-999.0,-999.0,30,-99.99,,,-99.99,meteohub,2013-02-02 23:17:00,
2013-02-02 18:22:00,42.8,13.6,29.78,North,-999,-999.0,-999.0,30,-99.99,,,-99.99,meteohub,2013-02-02 23:22:00,
2013-02-02 18:27:00,42.8,13.6,29.78,North,-999,-999.0,-999.0,30,-99.99,,,-99.99,meteohub,2013-02-02 23:27:00,
2013-02-02 18:32:00,42.8,13.6,29.78,North,-999,-999.0,-999.0,30,-99.99,,,-99.99,meteohub,2013-02-02 23:32:00,
2013-02-02 18:37:00,42.8,13.6,29.78,North,-999,-999.0,-999.0,30,-99.99,,,-99.99,meteohub,2013-02-02 23:37:00,
2013-02-02 18:42:00,42.8,13.6,29.78,North,-999,-999.0,-999.0,30,-99.99,,,-99.99,meteohub,2013-02-02 23:42:00,
2013-02-02 18:47:00,42.8,13.6,29.78,North,-999,-999.0,-999.0,30,-99.99,,,-99.99,meteohub,2013-02-02 23:47:00,
2013-02-02 18:52:00,42.6,14.2,29.78,North,-999,-999.0,-999.0,31,-99.99,,,-99.99,meteohub,2013-02-02 23:52:00,
2013-02-02 18:57:00,42.6,14.2,29.78,North,-999,-999.0,-999.0,31,-99.99,,,-99.99,meteohub,2013-02-02 23:57:00,
2013-02-02 19:02:00,42.6,14.2,29.78,North,-999,-999.0,-999.0,31,-99.99,,,-99.99,meteohub,2013-02-03 00:02:00,
2013-02-02 19:07:00,42.4,14.0,29.78,North,-999,-999.0,-999.0,31,-99.99,,,-99.99,meteohub,2013-02-03 00:07:00,
2013-02-02 19:12:00,42.4,14.0,29.78,North,-999,-999.0,-999.0,31,-99.99,,,-99.99,meteohub,2013-02-03 00:12:00,
2013-02-02 19:17:00,42.4,14.0,29.78,North,-999,-999.0,-999.0,31,-99.99,,,-99.99,meteohub,2013-02-03 00:17:00,
2013-02-02 19:22:00,42.6,14.2,29.75,North,-999,-999.0,-999.0,31,-99.99,,,-99.99,meteohub,2013-02-03 00:22:00,
2013-02-02 19:27:00,42.4,14.0,29.75,North,-999,-999.0,-999.0,31,-99.99,,,-99.99,meteohub,2013-02-03 00:27:00,
2013-02-02 19:32:00,42.4,14.7,29.75,North,-999,-999.0,-999.0,32,-99.99,,,-99.99,meteohub,2013-02-03 00:32:00,
2013-02-02 19:37:00,42.4,14.7,29.75,North,-999,-999.0,-999.0,32,-99.99,,,-99.99,meteohub,2013-02-03 00:37:00,
2013-02-02 19:42:00,42.4,14.7,29.75,North,-999,-999.0,-999.0,32,-99.99,,,-99.99,meteohub,2013-02-03 00:42:00,
2013-02-02 19:47:00,42.4,14.7,29.75,North,-999,-999.0,-999.0,32,-99.99,,,-99.99,meteohub,2013-02-03 00:47:00,
2013-02-02 19:52:00,42.6,14.9,29.75,North,-999,-999.0,-999.0,32,-99.99,,,-99.99,meteohub,2013-02-03 00:52:00,
2013-02-02 19:57:00,42.6,14.9,29.75,North,-999,-999.0,-999.0,32,-99.99,,,-99.99,meteohub,2013-02-03 00:57:00,
2013-02-02 20:02:00,42.6,14.9,29.75,North,-999,-999.0,-999.0,32,-99.99,,,-99.99,meteohub,2013-02-03 01:02:00,
2013-02-02 20:07:00,42.6,14.9,29.72,North,-999,-999.0,-999.0,32,-99.99,,,-99.99,meteohub,2013-02-03 01:07:00,
2013-02-02 20:12:00,42.6,14.9,29.72,North,-999,-999.0,-999.0,32,-99.99,,,-99.99,meteohub,2013-02-03 01:12:00,
2013-02-02 20:17:00,42.8,14.4,29.72,North,-999,-999.0,-999.0,31,-99.99,,,-99.99,meteohub,2013-02-03 01:17:00,
2013-02-02 20:22:00,42.8,14.4,29.72,North,-999,-999.0,-999.0,31,-99.99,,,-99.99,meteohub,2013-02-03 01:22:00,
2013-02-02 20:27:00,42.8,14.4,29.72,North,-999,-999.0,-999.0,31,-99.99,,,-99.99,meteohub,2013-02-03 01:27:00,
2013-02-02 20:32:00,43.0,14.5,29.72,North,-999,-999.0,-999.0,31,-99.99,,,-99.99,meteohub,2013-02-03 01:32:00,
2013-02-02 20:37:00,43.0,14.5,29.72,North,-999,-999.0,-999.0,31,-99.99,,,-99.99,meteohub,2013-02-03 01:37:00,
2013-02-02 20:42:00,43.0,15.3,29.72,North,-999,-999.0,-999.0,32,-99.99,,,-99.99,meteohub,2013-02-03 01:42:00,
2013-02-02 20:47:00,43.0,15.3,29.72,North,-999,-999.0,-999.0,32,-99.99,,,-99.99,meteohub,2013-02-03 01:47:00,
2013-02-02 20:52:00,43.2,15.4,29.72,North,-999,-999.0,-999.0,32,-99.99,,,-99.99,meteohub,2013-02-03 01:52:00,
2013-02-02 20:57:00,43.2,15.4,29.72,North,-999,-999.0,-999.0,32,-99.99,,,-99.99,meteohub,2013-02-03 01:57:00,
2013-02-02 21:02:00,43.3,15.4,29.72,North,-999,-999.0,-999.0,32,-99.99,,,-99.99,meteohub,2013-02-03 02:02:00,
2013-02-02 21:07:00,43.7,15.8,29.72,North,-999,-999.0,-999.0,32,-99.99,,,-99.99,meteohub,2013-02-03 02:07:00,
2013-02-02 21:12:00,43.7,16.5,29.72,North,-999,-999.0,-999.0,33,-99.99,,,-99.99,meteohub,2013-02-03 02:12:00,
2013-02-02 21:17:00,43.7,16.5,29.72,North,-999,-999.0,-999.0,33,-99.99,,,-99.99,meteohub,2013-02-03 02:17:00,
2013-02-02 21:22:00,43.9,16.7,29.75,North,-999,-999.0,-999.0,33,-99.99,,,-99.99,meteohub,2013-02-03 02:22:00,
2013-02-02 21:27:00,44.1,17.6,29.75,North,-999,-999.0,-999.0,34,-99.99,,,-99.99,meteohub,2013-02-03 02:27:00,
2013-02-02 21:32:00,44.4,19.8,29.75,North,-999,-999.0,-999.0,37,-99.99,,,-99.99,meteohub,2013-02-03 02:32:00,
2013-02-02 21:37:00,44.6,19.9,29.72,North,-999,-999.0,-999.0,37,-99.99,,,-99.99,meteohub,2013-02-03 02:37:00,
2013-02-02 21:42:00,44.8,20.8,29.72,North,-999,-999.0,-999.0,38,-99.99,,,-99.99,meteohub,2013-02-03 02:42:00,
2013-02-02 21:47:00,45.0,21.0,29.72,North,-999,-999.0,-999.0,38,-99.99,,,-99.99,meteohub,2013-02-03 02:47:00,
2013-02-02 21:52:00,45.0,21.6,29.72,North,-999,-999.0,-999.0,39,-99.99,,,-99.99,meteohub,2013-02-03 02:52:00,
2013-02-02 21:57:00,45.3,22.5,29.72,North,-999,-999.0,-999.0,40,-99.99,,,-99.99,meteohub,2013-02-03 02:57:00,
2013-02-02 22:02:00,45.1,22.8,29.72,North,-999,-999.0,-999.0,41,-99.99,,,-99.99,meteohub,2013-02-03 03:02:00,
2013-02-02 22:07:00,45.0,23.4,29.72,North,-999,-999.0,-999.0,42,-99.99,,,-99.99,meteohub,2013-02-03 03:07:00,
2013-02-02 22:12:00,44.8,24.8,29.72,North,-999,-999.0,-999.0,45,-99.99,,,-99.99,meteohub,2013-02-03 03:12:00,
2013-02-02 22:17:00,44.6,25.7,29.72,North,-999,-999.0,-999.0,47,-99.99,,,-99.99,meteohub,2013-02-03 03:17:00,
2013-02-02 22:22:00,44.6,25.2,29.72,North,-999,-999.0,-999.0,46,-99.99,,,-99.99,meteohub,2013-02-03 03:22:00,
2013-02-02 22:27:00,44.4,26.1,29.72,North,-999,-999.0,-999.0,48,-99.99,,,-99.99,meteohub,2013-02-03 03:27:00,
2013-02-02 22:32:00,44.4,26.1,29.72,North,-999,-999.0,-999.0,48,-99.99,,,-99.99,meteohub,2013-02-03 03:32:00,
2013-02-02 22:37:00,44.4,26.1,29.72,North,-999,-999.0,-999.0,48,-99.99,,,-99.99,meteohub,2013-02-03 03:37:00,
2013-02-02 22:42:00,44.4,26.1,29.72,North,-999,-999.0,-999.0,48,-99.99,,,-99.99,meteohub,2013-02-03 03:42:00,
2013-02-02 22:47:00,44.4,27.5,29.72,North,-999,-999.0,-999.0,51,-99.99,,,-99.99,meteohub,2013-02-03 03:47:00,
2013-02-02 22:52:00,44.2,27.7,29.72,North,-999,-999.0,-999.0,52,-99.99,,,-99.99,meteohub,2013-02-03 03:52:00,
2013-02-02 22:57:00,44.2,28.2,29.72,North,-999,-999.0,-999.0,53,-99.99,,,-99.99,meteohub,2013-02-03 03:57:00,
2013-02-02 23:02:00,44.1,29.5,29.72,North,-999,-999.0,-999.0,56,-99.99,,,-99.99,meteohub,2013-02-03 04:02:00,
2013-02-02 23:07:00,43.7,29.1,29.72,North,-999,-999.0,-999.0,56,-99.99,,,-99.99,meteohub,2013-02-03 04:07:00,
2013-02-02 23:12:00,43.5,30.9,29.72,North,-999,-999.0,-999.0,61,-99.99,,,-99.99,meteohub,2013-02-03 04:12:00,
2013-02-02 23:17:00,43.2,31.1,29.72,North,-999,-999.0,-999.0,62,-99.99,,,-99.99,meteohub,2013-02-03 04:17:00,
2013-02-02 23:22:00,43.0,32.0,29.72,North,-999,-999.0,-999.0,65,-99.99,,,-99.99,meteohub,2013-02-03 04:22:00,
2013-02-02 23:27:00,42.8,32.2,29.72,North,-999,-999.0,-999.0,66,-99.99,,,-99.99,meteohub,2013-02-03 04:27:00,
2013-02-02 23:32:00,42.6,31.3,29.72,North,-999,-999.0,-999.0,64,-99.99,,,-99.99,meteohub,2013-02-03 04:32:00,
2013-02-02 23:37:00,42.4,32.4,29.72,North,-999,-999.0,-999.0,67,-99.99,,,-99.99,meteohub,2013-02-03 04:37:00,
2013-02-02 23:42:00,42.3,31.8,29.72,North,-999,-999.0,-999.0,66,-99.99,,,-99.99,meteohub,2013-02-03 04:42:00,
2013-02-02 23:47:00,42.1,31.3,29.72,North,-999,-999.0,-999.0,65,-99.99,,,-99.99,meteohub,2013-02-03 04:47:00,
2013-02-02 23:52:00,42.1,32.7,29.69,North,-999,-999.0,-999.0,69,-99.99,,,-99.99,meteohub,2013-02-03 04:52:00,
2013-02-02 23:57:00,42.1,31.6,29.69,North,-999,-999.0,-999.0,66,-99.99,,,-99.99,meteohub,2013-02-03 04:57:00,